Time,TemperatureF,DewpointF,PressureIn,WindDirection,WindDirectionDegrees,WindSpeedMPH,WindSpeedGustMPH,Humidity,HourlyPrecipIn,Conditions,Clouds,dailyrainin,SoftwareType,DateUTC
2013-06-21 00:00:00,61.0,54.1,29.78,South,180,4.0,6.0,78,0.00,,,0.00,meteohub,2013-06-20 23:00:00,
2013-06-21 00:05:00,61.0,54.1,29.81,SW,225,3.0,6.0,78,0.00,,,0.00,meteohub,2013-06-20 23:05:00,
2013-06-21 00:10:00,61.0,54.1,29.81,SSW,202,4.0,6.0,78,0.00,,,0.00,meteohub,2013-06-20 23:10:00,
2013-06-21 00:15:00,60.8,54.0,29.81,SSW,202,4.0,6.0,78,0.00,,,0.00,meteohub,2013-06-20 23:15:00,
2013-06-21 00:20:00,60.8,54.0,29.78,SW,225,4.0,6.0,78,0.00,,,0.00,meteohub,2013-06-20 23:20:00,
2013-06-21 00:25:00,60.8,54.0,29.78,SW,225,3.0,6.0,78,0.00,,,0.00,meteohub,2013-06-20 23:25:00,
2013-06-21 00:30:00,60.8,54.0,29.78,SW,225,3.0,5.0,78,0.00,,,0.00,meteohub,2013-06-20 23:30:00,
2013-06-21 00:35:00,60.8,54.0,29.78,SW,225,2.0,5.0,78,0.00,,,0.00,meteohub,2013-06-20 23:35:00,
2013-06-21 00:40:00,60.8,53.6,29.78,SSW,202,4.0,5.0,77,0.00,,,0.00,meteohub,2013-06-20 23:40:00,
2013-06-21 00:46:00,60.6,53.4,29.78,SE,135,4.0,5.0,77,0.00,,,0.00,meteohub,2013-06-20 23:46:00,
2013-06-21 00:51:00,60.6,53.4,29.78,South,180,0.0,5.0,77,0.00,,,0.00,meteohub,2013-06-20 23:51:00,
2013-06-21 00:56:00,60.6,53.4,29.78,ESE,112,3.0,4.0,77,0.00,,,0.00,meteohub,2013-06-20 23:56:00,
2013-06-21 01:01:00,60.6,53.4,29.78,South,180,1.0,4.0,77,0.00,,,0.00,meteohub,2013-06-21 00:01:00,
2013-06-21 01:06:00,60.6,53.8,29.78,SSW,202,1.0,4.0,78,0.00,,,0.00,meteohub,2013-06-21 00:06:00,
2013-06-21 01:11:00,60.6,54.1,29.78,WSW,247,0.0,4.0,79,0.00,,,0.00,meteohub,2013-06-21 00:11:00,
2013-06-21 01:16:00,60.4,54.3,29.78,WSW,247,0.0,4.0,80,0.00,,,0.00,meteohub,2013-06-21 00:16:00,
2013-06-21 01:21:00,60.3,54.3,29.78,WSW,247,0.0,4.0,81,0.00,,,0.00,meteohub,2013-06-21 00:21:00,
2013-06-21 01:26:00,60.1,54.5,29.78,West,270,0.0,3.0,82,0.00,,,0.00,meteohub,2013-06-21 00:26:00,
2013-06-21 01:31:00,59.9,54.7,29.78,West,270,1.0,3.0,83,0.00,,,0.00,meteohub,2013-06-21 00:31:00,
2013-06-21 01:36:00,59.7,54.5,29.78,SW,225,1.0,3.0,83,0.00,,,0.00,meteohub,2013-06-21 00:36:00,
2013-06-21 01:42:00,59.7,54.9,29.78,SW,225,2.0,4.0,84,0.00,,,0.00,meteohub,2013-06-21 00:42:00,
2013-06-21 01:47:00,59.4,54.1,29.78,West,270,1.0,4.0,83,0.01,,,0.01,meteohub,2013-06-21 00:47:00,
2013-06-21 01:52:00,59.4,54.5,29.78,WSW,247,1.0,4.0,84,0.02,,,0.02,meteohub,2013-06-21 00:52:00,
2013-06-21 01:57:00,59.4,54.5,29.78,SSW,202,2.0,4.0,84,0.02,,,0.02,meteohub,2013-06-21 00:57:00,
2013-06-21 02:02:00,59.2,54.7,29.78,SW,225,1.0,3.0,85,0.02,,,0.02,meteohub,2013-06-21 01:02:00,
2013-06-21 02:07:00,59.0,54.5,29.78,WSW,247,0.0,3.0,85,0.02,,,0.02,meteohub,2013-06-21 01:07:00,
2013-06-21 02:12:00,59.0,54.9,29.78,WSW,247,0.0,3.0,86,0.02,,,0.02,meteohub,2013-06-21 01:12:00,
2013-06-21 02:17:00,58.8,55.0,29.78,WNW,292,2.0,2.0,87,0.02,,,0.02,meteohub,2013-06-21 01:17:00,
2013-06-21 02:22:00,58.8,55.0,29.78,West,270,2.0,3.0,87,0.02,,,0.02,meteohub,2013-06-21 01:22:00,
2013-06-21 02:27:00,58.8,55.0,29.78,West,270,0.0,3.0,87,0.02,,,0.02,meteohub,2013-06-21 01:27:00,
2013-06-21 02:32:00,58.8,55.0,29.78,NW,315,0.0,4.0,87,0.02,,,0.02,meteohub,2013-06-21 01:32:00,
2013-06-21 02:37:00,58.8,55.0,29.78,WNW,292,2.0,4.0,87,0.02,,,0.02,meteohub,2013-06-21 01:37:00,
2013-06-21 02:42:00,58.8,55.2,29.78,WSW,247,2.0,4.0,88,0.02,,,0.02,meteohub,2013-06-21 01:42:00,
2013-06-21 02:47:00,58.6,55.0,29.78,WSW,247,0.0,4.0,88,0.01,,,0.02,meteohub,2013-06-21 01:47:00,
2013-06-21 02:52:00,58.6,55.0,29.78,SW,225,3.0,3.0,88,0.00,,,0.02,meteohub,2013-06-21 01:52:00,
2013-06-21 02:57:00,58.5,55.2,29.78,WSW,247,4.0,5.0,89,0.01,,,0.03,meteohub,2013-06-21 01:57:00,
2013-06-21 03:02:00,58.5,55.2,29.78,SW,225,5.0,5.0,89,0.02,,,0.04,meteohub,2013-06-21 02:02:00,
2013-06-21 03:07:00,58.5,55.2,29.78,SSW,202,3.0,5.0,89,0.03,,,0.05,meteohub,2013-06-21 02:07:00,
2013-06-21 03:12:00,58.3,55.4,29.78,SSW,202,3.0,5.0,90,0.03,,,0.05,meteohub,2013-06-21 02:12:00,
2013-06-21 03:17:00,58.3,55.4,29.78,SSW,202,2.0,5.0,90,0.03,,,0.05,meteohub,2013-06-21 02:17:00,
2013-06-21 03:22:00,58.1,55.4,29.78,SW,225,3.0,5.0,91,0.03,,,0.05,meteohub,2013-06-21 02:22:00,
2013-06-21 03:27:00,58.1,55.4,29.78,South,180,2.0,5.0,91,0.04,,,0.06,meteohub,2013-06-21 02:27:00,
2013-06-21 03:32:00,58.1,55.4,29.78,South,180,2.0,4.0,91,0.04,,,0.06,meteohub,2013-06-21 02:32:00,
2013-06-21 03:37:00,58.1,55.4,29.75,SSW,202,3.0,4.0,91,0.04,,,0.06,meteohub,2013-06-21 02:37:00,
2013-06-21 03:42:00,58.1,55.4,29.75,South,180,2.0,4.0,91,0.04,,,0.06,meteohub,2013-06-21 02:42:00,
2013-06-21 03:47:00,58.3,55.6,29.75,West,270,0.0,4.0,91,0.04,,,0.06,meteohub,2013-06-21 02:47:00,
2013-06-21 03:52:00,58.3,55.9,29.75,WNW,292,0.0,3.0,92,0.03,,,0.06,meteohub,2013-06-21 02:52:00,
2013-06-21 03:57:00,58.3,55.9,29.75,SSW,202,0.0,2.0,92,0.03,,,0.06,meteohub,2013-06-21 02:57:00,
2013-06-21 04:02:00,58.3,55.9,29.75,SSE,157,2.0,2.0,92,0.02,,,0.06,meteohub,2013-06-21 03:02:00,
2013-06-21 04:07:00,58.3,55.6,29.75,North,0,2.0,4.0,91,0.01,,,0.06,meteohub,2013-06-21 03:07:00,
2013-06-21 04:12:00,58.3,55.9,29.75,SSW,202,0.0,4.0,92,0.01,,,0.06,meteohub,2013-06-21 03:12:00,
2013-06-21 04:17:00,58.3,55.9,29.75,South,180,1.0,4.0,92,0.01,,,0.06,meteohub,2013-06-21 03:17:00,
2013-06-21 04:22:00,58.1,55.8,29.75,South,180,2.0,3.0,92,0.01,,,0.06,meteohub,2013-06-21 03:22:00,
2013-06-21 04:27:00,58.3,55.9,29.75,WNW,292,2.0,3.0,92,0.00,,,0.06,meteohub,2013-06-21 03:27:00,
2013-06-21 04:32:00,58.3,55.9,29.75,NNW,337,0.0,3.0,92,0.00,,,0.06,meteohub,2013-06-21 03:32:00,
2013-06-21 04:37:00,58.3,55.9,29.75,NNW,337,0.0,3.0,92,0.00,,,0.06,meteohub,2013-06-21 03:37:00,
2013-06-21 04:42:00,58.3,55.9,29.75,NE,45,0.0,2.0,92,0.00,,,0.06,meteohub,2013-06-21 03:42:00,
2013-06-21 04:47:00,58.3,55.9,29.75,NE,45,0.0,0.0,92,0.00,,,0.06,meteohub,2013-06-21 03:47:00,
2013-06-21 04:52:00,58.3,55.9,29.75,NE,45,0.0,0.0,92,0.00,,,0.06,meteohub,2013-06-21 03:52:00,
2013-06-21 04:57:00,58.3,55.9,29.75,NE,45,0.0,0.0,92,0.00,,,0.06,meteohub,2013-06-21 03:57:00,
2013-06-21 05:01:00,58.3,55.9,29.75,WSW,247,0.0,0.0,92,0.00,,,0.06,meteohub,2013-06-21 04:01:00,
2013-06-21 05:02:00,58.3,55.9,29.75,WSW,247,0.0,0.0,92,0.00,,,0.06,meteohub,2013-06-21 04:02:00,
2013-06-21 05:03:00,58.3,55.9,29.75,WSW,247,0.0,0.0,92,0.00,,,0.06,meteohub,2013-06-21 04:03:00,
2013-06-21 05:04:00,58.3,55.9,29.75,WNW,292,2.0,0.0,92,0.00,,,0.06,meteohub,2013-06-21 04:04:00,
2013-06-21 05:09:00,58.3,55.9,29.75,WNW,292,3.0,3.0,92,0.00,,,0.06,meteohub,2013-06-21 04:09:00,
2013-06-21 05:15:00,58.3,55.9,29.75,West,270,0.0,3.0,92,0.00,,,0.06,meteohub,2013-06-21 04:15:00,
2013-06-21 05:20:00,58.1,55.8,29.75,West,270,2.0,4.0,92,0.00,,,0.06,meteohub,2013-06-21 04:20:00,
2013-06-21 05:25:00,58.1,55.8,29.75,West,270,0.0,4.0,92,0.00,,,0.06,meteohub,2013-06-21 04:25:00,
2013-06-21 05:30:00,58.1,55.8,29.75,West,270,0.0,3.0,92,0.00,,,0.06,meteohub,2013-06-21 04:30:00,
2013-06-21 05:35:00,57.9,55.6,29.75,WSW,247,0.0,2.0,92,0.00,,,0.06,meteohub,2013-06-21 04:35:00,
2013-06-21 05:40:00,57.9,55.6,29.75,West,270,0.0,2.0,92,0.00,,,0.06,meteohub,2013-06-21 04:40:00,
2013-06-21 05:45:00,57.9,55.6,29.75,SW,225,3.0,3.0,92,0.00,,,0.06,meteohub,2013-06-21 04:45:00,
2013-06-21 05:50:00,57.7,55.4,29.75,WSW,247,0.0,3.0,92,0.00,,,0.06,meteohub,2013-06-21 04:50:00,
2013-06-21 05:55:00,57.7,55.4,29.75,SW,225,0.0,3.0,92,0.00,,,0.06,meteohub,2013-06-21 04:55:00,
2013-06-21 06:00:00,57.6,55.2,29.75,West,270,0.0,3.0,92,0.00,,,0.06,meteohub,2013-06-21 05:00:00,
2013-06-21 06:05:00,57.6,55.0,29.75,SW,225,0.0,2.0,91,0.00,,,0.06,meteohub,2013-06-21 05:05:00,
2013-06-21 06:10:00,57.6,55.0,29.75,WSW,247,0.0,2.0,91,0.00,,,0.06,meteohub,2013-06-21 05:10:00,
2013-06-21 06:16:00,57.4,54.9,29.75,WSW,247,0.0,2.0,91,0.00,,,0.06,meteohub,2013-06-21 05:16:00,
2013-06-21 06:21:00,57.4,54.9,29.75,WSW,247,0.0,1.0,91,0.00,,,0.06,meteohub,2013-06-21 05:21:00,
2013-06-21 06:26:00,57.4,55.0,29.75,WSW,247,0.0,0.0,92,0.00,,,0.06,meteohub,2013-06-21 05:26:00,
2013-06-21 06:31:00,57.6,55.2,29.75,WSW,247,0.0,0.0,92,0.00,,,0.06,meteohub,2013-06-21 05:31:00,
2013-06-21 06:36:00,57.4,55.0,29.75,WSW,247,0.0,0.0,92,0.00,,,0.06,meteohub,2013-06-21 05:36:00,
2013-06-21 06:41:00,57.4,55.0,29.75,SE,135,0.0,0.0,92,0.00,,,0.06,meteohub,2013-06-21 05:41:00,
2013-06-21 06:46:00,57.4,55.0,29.75,SSW,202,0.0,0.0,92,0.00,,,0.06,meteohub,2013-06-21 05:46:00,
2013-06-21 06:51:00,57.6,55.2,29.75,WSW,247,0.0,0.0,92,0.00,,,0.06,meteohub,2013-06-21 05:51:00,
2013-06-21 06:56:00,57.6,55.2,29.75,WSW,247,0.0,0.0,92,0.00,,,0.06,meteohub,2013-06-21 05:56:00,
2013-06-21 07:01:00,57.6,55.2,29.75,WSW,247,0.0,0.0,92,0.00,,,0.06,meteohub,2013-06-21 06:01:00,
2013-06-21 07:06:00,57.7,55.4,29.75,WNW,292,0.0,0.0,92,0.00,,,0.06,meteohub,2013-06-21 06:06:00,
2013-06-21 07:11:00,57.7,55.4,29.75,WNW,292,0.0,0.0,92,0.00,,,0.06,meteohub,2013-06-21 06:11:00,
2013-06-21 07:17:00,57.9,55.6,29.75,WSW,247,0.0,0.0,92,0.00,,,0.06,meteohub,2013-06-21 06:17:00,
2013-06-21 07:22:00,57.9,55.6,29.75,WSW,247,0.0,1.0,92,0.00,,,0.06,meteohub,2013-06-21 06:22:00,
2013-06-21 07:27:00,57.9,55.6,29.75,WSW,247,0.0,1.0,92,0.00,,,0.06,meteohub,2013-06-21 06:27:00,
2013-06-21 07:32:00,57.9,55.6,29.75,WSW,247,0.0,1.0,92,0.00,,,0.06,meteohub,2013-06-21 06:32:00,
2013-06-21 07:37:00,57.9,55.6,29.75,WSW,247,0.0,0.0,92,0.00,,,0.06,meteohub,2013-06-21 06:37:00,
2013-06-21 07:42:00,57.9,55.6,29.75,SSE,157,0.0,0.0,92,0.00,,,0.06,meteohub,2013-06-21 06:42:00,
2013-06-21 07:47:00,57.9,55.6,29.75,South,180,0.0,0.0,92,0.00,,,0.06,meteohub,2013-06-21 06:47:00,
2013-06-21 07:52:00,57.9,55.6,29.75,South,180,1.0,0.0,92,0.00,,,0.06,meteohub,2013-06-21 06:52:00,
2013-06-21 07:57:00,58.1,55.8,29.75,SSW,202,0.0,1.0,92,0.00,,,0.06,meteohub,2013-06-21 06:57:00,
2013-06-21 08:02:00,58.1,55.8,29.75,SW,225,0.0,2.0,92,0.00,,,0.06,meteohub,2013-06-21 07:02:00,
2013-06-21 08:08:00,58.5,56.5,29.75,WSW,247,0.0,2.0,93,0.00,,,0.06,meteohub,2013-06-21 07:08:00,
2013-06-21 08:13:00,58.6,56.7,29.75,South,180,0.0,2.0,93,0.00,,,0.06,meteohub,2013-06-21 07:13:00,
2013-06-21 08:18:00,58.6,56.3,29.75,South,180,0.0,2.0,92,0.00,,,0.06,meteohub,2013-06-21 07:18:00,
2013-06-21 08:23:00,58.8,56.5,29.75,SSW,202,0.0,2.0,92,0.00,,,0.06,meteohub,2013-06-21 07:23:00,
2013-06-21 08:28:00,58.8,56.5,29.75,SW,225,0.0,1.0,92,0.00,,,0.06,meteohub,2013-06-21 07:28:00,
2013-06-21 08:33:00,58.8,56.5,29.75,East,90,2.0,2.0,92,0.00,,,0.06,meteohub,2013-06-21 07:33:00,
2013-06-21 08:38:00,58.8,56.5,29.75,ESE,112,3.0,3.0,92,0.00,,,0.06,meteohub,2013-06-21 07:38:00,
2013-06-21 08:43:00,58.8,56.1,29.75,East,90,4.0,4.0,91,0.00,,,0.06,meteohub,2013-06-21 07:43:00,
2013-06-21 08:48:00,58.6,55.9,29.75,ENE,67,3.0,4.0,91,0.00,,,0.06,meteohub,2013-06-21 07:48:00,
2013-06-21 08:53:00,58.6,55.9,29.75,East,90,4.0,4.0,91,0.00,,,0.06,meteohub,2013-06-21 07:53:00,
2013-06-21 08:58:00,58.6,55.9,29.75,NNE,22,3.0,4.0,91,0.00,,,0.06,meteohub,2013-06-21 07:58:00,
2013-06-21 09:04:00,58.8,56.5,29.75,ENE,67,3.0,4.0,92,0.00,,,0.06,meteohub,2013-06-21 08:04:00,
2013-06-21 09:09:00,59.2,56.8,29.75,East,90,2.0,4.0,92,0.00,,,0.06,meteohub,2013-06-21 08:09:00,
2013-06-21 09:14:00,59.5,57.2,29.75,NE,45,2.0,4.0,92,0.00,,,0.06,meteohub,2013-06-21 08:14:00,
2013-06-21 09:19:00,59.7,57.4,29.75,East,90,2.0,4.0,92,0.00,,,0.06,meteohub,2013-06-21 08:19:00,
2013-06-21 09:24:00,59.9,57.2,29.75,ENE,67,2.0,3.0,91,0.00,,,0.06,meteohub,2013-06-21 08:24:00,
2013-06-21 09:29:00,60.1,57.4,29.75,NE,45,3.0,4.0,91,0.00,,,0.06,meteohub,2013-06-21 08:29:00,
2013-06-21 09:34:00,60.4,57.7,29.75,East,90,2.0,4.0,91,0.00,,,0.06,meteohub,2013-06-21 08:34:00,
2013-06-21 09:39:00,60.6,57.9,29.75,NE,45,0.0,4.0,91,0.00,,,0.06,meteohub,2013-06-21 08:39:00,
2013-06-21 09:44:00,60.8,57.9,29.75,NE,45,1.0,4.0,90,0.00,,,0.06,meteohub,2013-06-21 08:44:00,
2013-06-21 09:49:00,61.2,58.3,29.75,East,90,0.0,3.0,90,0.00,,,0.06,meteohub,2013-06-21 08:49:00,
2013-06-21 09:54:00,61.3,58.1,29.75,NE,45,0.0,3.0,89,0.00,,,0.06,meteohub,2013-06-21 08:54:00,
2013-06-21 10:00:00,61.7,58.5,29.75,NE,45,2.0,2.0,89,0.00,,,0.06,meteohub,2013-06-21 09:00:00,
2013-06-21 10:05:00,61.9,58.6,29.75,NNE,22,0.0,3.0,89,0.00,,,0.06,meteohub,2013-06-21 09:05:00,
2013-06-21 10:10:00,62.1,58.5,29.75,SSE,157,0.0,3.0,88,0.00,,,0.06,meteohub,2013-06-21 09:10:00,
2013-06-21 10:15:00,62.2,58.6,29.75,NE,45,0.0,2.0,88,0.00,,,0.06,meteohub,2013-06-21 09:15:00,
2013-06-21 10:20:00,62.6,58.6,29.75,NW,315,0.0,2.0,87,0.00,,,0.06,meteohub,2013-06-21 09:20:00,
2013-06-21 10:25:00,62.6,58.3,29.75,North,0,0.0,2.0,86,0.00,,,0.06,meteohub,2013-06-21 09:25:00,
2013-06-21 10:30:00,63.0,58.6,29.75,North,0,0.0,1.0,86,0.00,,,0.06,meteohub,2013-06-21 09:30:00,
2013-06-21 10:35:00,63.1,58.8,29.75,NNE,22,0.0,2.0,86,0.00,,,0.06,meteohub,2013-06-21 09:35:00,
2013-06-21 10:40:00,63.3,58.1,29.75,SSE,157,1.0,2.0,83,0.00,,,0.06,meteohub,2013-06-21 09:40:00,
2013-06-21 10:45:00,63.5,58.8,29.75,SE,135,0.0,2.0,85,0.00,,,0.06,meteohub,2013-06-21 09:45:00,
2013-06-21 10:50:00,63.3,57.7,29.75,ESE,112,2.0,3.0,82,0.00,,,0.06,meteohub,2013-06-21 09:50:00,
2013-06-21 10:56:00,63.5,57.9,29.75,NE,45,2.0,3.0,82,0.00,,,0.06,meteohub,2013-06-21 09:56:00,
2013-06-21 11:01:00,63.5,57.9,29.75,East,90,0.0,3.0,82,0.00,,,0.06,meteohub,2013-06-21 10:01:00,
2013-06-21 11:06:00,63.5,57.9,29.75,ESE,112,4.0,4.0,82,0.00,,,0.06,meteohub,2013-06-21 10:06:00,
2013-06-21 11:11:00,63.5,57.6,29.75,ESE,112,5.0,5.0,81,0.00,,,0.06,meteohub,2013-06-21 10:11:00,
2013-06-21 11:16:00,63.5,57.6,29.75,SSE,157,2.0,5.0,81,0.00,,,0.06,meteohub,2013-06-21 10:16:00,
2013-06-21 11:21:00,63.3,57.0,29.75,ESE,112,6.0,6.0,80,0.00,,,0.06,meteohub,2013-06-21 10:21:00,
2013-06-21 11:26:00,63.0,57.0,29.75,SE,135,3.0,8.0,81,0.00,,,0.06,meteohub,2013-06-21 10:26:00,
2013-06-21 11:31:00,62.8,56.8,29.75,ESE,112,3.0,8.0,81,0.00,,,0.06,meteohub,2013-06-21 10:31:00,
2013-06-21 11:36:00,63.0,57.0,29.75,SE,135,5.0,8.0,81,0.00,,,0.06,meteohub,2013-06-21 10:36:00,
2013-06-21 11:41:00,63.3,57.7,29.75,SSE,157,7.0,8.0,82,0.00,,,0.06,meteohub,2013-06-21 10:41:00,
2013-06-21 11:46:00,63.5,57.6,29.75,East,90,5.0,8.0,81,0.00,,,0.06,meteohub,2013-06-21 10:46:00,
2013-06-21 11:51:00,63.9,57.6,29.72,SSE,157,6.0,8.0,80,0.00,,,0.06,meteohub,2013-06-21 10:51:00,
2013-06-21 11:56:00,64.2,57.9,29.72,SSE,157,4.0,8.0,80,0.00,,,0.06,meteohub,2013-06-21 10:56:00,
2013-06-21 12:02:00,64.0,57.4,29.72,NE,45,4.0,7.0,79,0.00,,,0.06,meteohub,2013-06-21 11:02:00,
2013-06-21 12:07:00,64.2,57.6,29.72,East,90,5.0,7.0,79,0.00,,,0.06,meteohub,2013-06-21 11:07:00,
2013-06-21 12:12:00,64.2,57.6,29.72,South,180,4.0,6.0,79,0.00,,,0.06,meteohub,2013-06-21 11:12:00,
2013-06-21 12:17:00,64.0,56.7,29.72,SE,135,1.0,6.0,77,0.00,,,0.06,meteohub,2013-06-21 11:17:00,
2013-06-21 12:22:00,64.0,57.0,29.72,SSE,157,2.0,8.0,78,0.00,,,0.06,meteohub,2013-06-21 11:22:00,
2013-06-21 12:27:00,63.9,57.2,29.72,SSW,202,3.0,9.0,79,0.00,,,0.06,meteohub,2013-06-21 11:27:00,
2013-06-21 12:32:00,63.9,56.8,29.72,South,180,7.0,9.0,78,0.00,,,0.06,meteohub,2013-06-21 11:32:00,
2013-06-21 12:37:00,63.9,56.5,29.72,SE,135,6.0,9.0,77,0.00,,,0.06,meteohub,2013-06-21 11:37:00,
2013-06-21 12:43:00,63.5,56.1,29.72,SSE,157,3.0,8.0,77,0.00,,,0.06,meteohub,2013-06-21 11:43:00,
2013-06-21 12:48:00,63.5,56.5,29.72,SSE,157,4.0,8.0,78,0.00,,,0.06,meteohub,2013-06-21 11:48:00,
2013-06-21 12:53:00,63.1,55.4,29.72,ESE,112,6.0,8.0,76,0.00,,,0.06,meteohub,2013-06-21 11:53:00,
2013-06-21 12:58:00,63.3,55.9,29.72,South,180,1.0,8.0,77,0.00,,,0.06,meteohub,2013-06-21 11:58:00,
2013-06-21 13:03:00,63.5,56.1,29.72,ESE,112,4.0,8.0,77,0.00,,,0.06,meteohub,2013-06-21 12:03:00,
2013-06-21 13:08:00,63.7,56.7,29.72,SE,135,4.0,8.0,78,0.00,,,0.06,meteohub,2013-06-21 12:08:00,
2013-06-21 13:13:00,63.9,56.5,29.72,WSW,247,1.0,6.0,77,0.00,,,0.06,meteohub,2013-06-21 12:13:00,
2013-06-21 13:18:00,64.0,56.7,29.72,South,180,3.0,6.0,77,0.00,,,0.06,meteohub,2013-06-21 12:18:00,
2013-06-21 13:24:00,64.2,56.8,29.72,SSW,202,1.0,7.0,77,0.00,,,0.06,meteohub,2013-06-21 12:24:00,
2013-06-21 13:29:00,64.4,57.0,29.72,West,270,5.0,7.0,77,0.00,,,0.06,meteohub,2013-06-21 12:29:00,
2013-06-21 13:34:00,64.8,57.4,29.72,WSW,247,6.0,7.0,77,0.00,,,0.06,meteohub,2013-06-21 12:34:00,
2013-06-21 13:39:00,65.1,57.4,29.72,West,270,5.0,6.0,76,0.00,,,0.06,meteohub,2013-06-21 12:39:00,
2013-06-21 13:44:00,65.3,57.6,29.72,WNW,292,4.0,6.0,76,0.00,,,0.06,meteohub,2013-06-21 12:44:00,
2013-06-21 13:49:00,65.7,58.3,29.72,SSW,202,5.0,8.0,77,0.00,,,0.06,meteohub,2013-06-21 12:49:00,
2013-06-21 13:54:00,65.7,57.9,29.72,West,270,4.0,9.0,76,0.00,,,0.06,meteohub,2013-06-21 12:54:00,
2013-06-21 13:59:00,65.5,57.4,29.72,WSW,247,2.0,11.0,75,0.00,,,0.06,meteohub,2013-06-21 12:59:00,
2013-06-21 14:04:00,65.5,57.0,29.72,NW,315,3.0,11.0,74,0.00,,,0.06,meteohub,2013-06-21 13:04:00,
2013-06-21 14:10:00,65.5,57.4,29.72,West,270,8.0,11.0,75,0.00,,,0.06,meteohub,2013-06-21 13:10:00,
2013-06-21 14:15:00,65.3,56.8,29.72,West,270,4.0,10.0,74,0.00,,,0.06,meteohub,2013-06-21 13:15:00,
2013-06-21 14:20:00,65.5,57.4,29.72,South,180,1.0,9.0,75,0.00,,,0.06,meteohub,2013-06-21 13:20:00,
2013-06-21 14:25:00,65.8,58.1,29.72,WSW,247,5.0,11.0,76,0.00,,,0.06,meteohub,2013-06-21 13:25:00,
2013-06-21 14:30:00,66.2,58.5,29.72,West,270,8.0,11.0,76,0.00,,,0.06,meteohub,2013-06-21 13:30:00,
2013-06-21 14:35:00,66.6,58.5,29.72,SSW,202,11.0,11.0,75,0.00,,,0.06,meteohub,2013-06-21 13:35:00,
2013-06-21 14:40:00,66.9,58.3,29.72,WSW,247,4.0,11.0,74,0.00,,,0.06,meteohub,2013-06-21 13:40:00,
2013-06-21 14:46:00,66.9,57.9,29.72,WNW,292,9.0,12.0,73,0.00,,,0.06,meteohub,2013-06-21 13:46:00,
2013-06-21 14:51:00,67.1,57.7,29.72,SSW,202,9.0,12.0,72,0.00,,,0.06,meteohub,2013-06-21 13:51:00,
2013-06-21 14:56:00,67.1,57.4,29.72,West,270,8.0,12.0,71,0.00,,,0.06,meteohub,2013-06-21 13:56:00,
2013-06-21 15:01:00,67.1,57.4,29.72,SW,225,1.0,11.0,71,0.00,,,0.06,meteohub,2013-06-21 14:01:00,
2013-06-21 15:06:00,67.1,57.4,29.72,WNW,292,2.0,10.0,71,0.00,,,0.06,meteohub,2013-06-21 14:06:00,
2013-06-21 15:11:00,66.9,57.2,29.72,West,270,3.0,10.0,71,0.00,,,0.06,meteohub,2013-06-21 14:11:00,
2013-06-21 15:17:00,66.7,56.7,29.72,WSW,247,6.0,10.0,70,0.00,,,0.06,meteohub,2013-06-21 14:17:00,
2013-06-21 15:22:00,66.7,56.7,29.72,WSW,247,3.0,9.0,70,0.00,,,0.06,meteohub,2013-06-21 14:22:00,
2013-06-21 15:27:00,66.6,56.5,29.72,West,270,4.0,10.0,70,0.00,,,0.06,meteohub,2013-06-21 14:27:00,
2013-06-21 15:32:00,66.4,56.3,29.72,SSW,202,6.0,10.0,70,0.00,,,0.06,meteohub,2013-06-21 14:32:00,
2013-06-21 15:37:00,66.2,56.1,29.72,SW,225,4.0,10.0,70,0.00,,,0.06,meteohub,2013-06-21 14:37:00,
2013-06-21 15:42:00,66.0,56.3,29.72,WSW,247,3.0,9.0,71,0.00,,,0.06,meteohub,2013-06-21 14:42:00,
2013-06-21 15:47:00,65.8,56.1,29.72,WNW,292,4.0,8.0,71,0.00,,,0.06,meteohub,2013-06-21 14:47:00,
2013-06-21 15:52:00,65.8,56.1,29.72,WSW,247,4.0,8.0,71,0.00,,,0.06,meteohub,2013-06-21 14:52:00,
2013-06-21 15:57:00,65.7,55.9,29.72,WNW,292,4.0,8.0,71,0.00,,,0.06,meteohub,2013-06-21 14:57:00,
2013-06-21 16:02:00,65.7,55.9,29.72,West,270,2.0,8.0,71,0.00,,,0.06,meteohub,2013-06-21 15:02:00,
2013-06-21 16:07:00,65.7,55.9,29.72,WNW,292,6.0,8.0,71,0.00,,,0.06,meteohub,2013-06-21 15:07:00,
2013-06-21 16:12:00,65.7,55.6,29.72,WNW,292,6.0,13.0,70,0.00,,,0.06,meteohub,2013-06-21 15:12:00,
2013-06-21 16:17:00,65.8,56.1,29.72,WNW,292,6.0,13.0,71,0.00,,,0.06,meteohub,2013-06-21 15:17:00,
2013-06-21 16:22:00,66.0,56.3,29.72,WNW,292,4.0,13.0,71,0.00,,,0.06,meteohub,2013-06-21 15:22:00,
2013-06-21 16:27:00,66.2,56.5,29.72,WSW,247,3.0,9.0,71,0.00,,,0.06,meteohub,2013-06-21 15:27:00,
2013-06-21 16:32:00,66.2,56.5,29.72,SW,225,5.0,10.0,71,0.00,,,0.06,meteohub,2013-06-21 15:32:00,
2013-06-21 16:38:00,66.0,56.3,29.72,SW,225,6.0,10.0,71,0.00,,,0.06,meteohub,2013-06-21 15:38:00,
2013-06-21 16:43:00,65.7,55.2,29.72,South,180,4.0,10.0,69,0.00,,,0.06,meteohub,2013-06-21 15:43:00,
2013-06-21 16:48:00,65.8,55.4,29.72,SW,225,6.0,12.0,69,0.00,,,0.06,meteohub,2013-06-21 15:48:00,
2013-06-21 16:53:00,65.7,54.9,29.69,WNW,292,6.0,12.0,68,0.00,,,0.06,meteohub,2013-06-21 15:53:00,
2013-06-21 16:58:00,65.8,55.0,29.69,WNW,292,4.0,12.0,68,0.00,,,0.06,meteohub,2013-06-21 15:58:00,
2013-06-21 17:03:00,65.7,54.3,29.69,West,270,4.0,11.0,67,0.00,,,0.06,meteohub,2013-06-21 16:03:00,
2013-06-21 17:08:00,65.8,55.0,29.69,SSW,202,2.0,11.0,68,0.00,,,0.06,meteohub,2013-06-21 16:08:00,
2013-06-21 17:13:00,65.8,54.5,29.69,West,270,3.0,11.0,67,0.00,,,0.06,meteohub,2013-06-21 16:13:00,
2013-06-21 17:18:00,65.8,54.1,29.69,SSW,202,4.0,10.0,66,0.00,,,0.06,meteohub,2013-06-21 16:18:00,
2013-06-21 17:24:00,65.8,54.1,29.69,SW,225,4.0,11.0,66,0.00,,,0.06,meteohub,2013-06-21 16:24:00,
2013-06-21 17:29:00,65.8,53.8,29.69,WSW,247,4.0,11.0,65,0.00,,,0.06,meteohub,2013-06-21 16:29:00,
2013-06-21 17:34:00,65.8,53.8,29.69,WSW,247,6.0,13.0,65,0.00,,,0.06,meteohub,2013-06-21 16:34:00,
2013-06-21 17:39:00,65.7,53.2,29.69,SW,225,3.0,13.0,64,0.00,,,0.06,meteohub,2013-06-21 16:39:00,
2013-06-21 17:44:00,65.5,53.1,29.69,West,270,6.0,13.0,64,0.00,,,0.06,meteohub,2013-06-21 16:44:00,
2013-06-21 17:49:00,65.5,52.5,29.69,WSW,247,11.0,13.0,63,0.00,,,0.06,meteohub,2013-06-21 16:49:00,
2013-06-21 17:54:00,65.5,52.5,29.69,West,270,4.0,15.0,63,0.00,,,0.06,meteohub,2013-06-21 16:54:00,
2013-06-21 18:00:00,65.5,52.5,29.69,WSW,247,6.0,15.0,63,0.00,,,0.06,meteohub,2013-06-21 17:00:00,
2013-06-21 18:05:00,65.5,52.2,29.69,NW,315,1.0,14.0,62,0.00,,,0.06,meteohub,2013-06-21 17:05:00,
2013-06-21 18:10:00,65.3,51.4,29.69,WNW,292,4.0,14.0,61,0.00,,,0.06,meteohub,2013-06-21 17:10:00,
2013-06-21 18:13:00,65.3,51.4,29.69,WSW,247,4.0,14.0,61,0.00,,,0.06,meteohub,2013-06-21 17:13:00,
2013-06-21 18:17:00,65.3,51.4,29.69,WSW,247,4.0,14.0,61,0.00,,,0.06,meteohub,2013-06-21 17:17:00,
2013-06-21 18:22:00,65.3,51.1,29.69,WSW,247,10.0,10.0,60,0.00,,,0.06,meteohub,2013-06-21 17:22:00,
2013-06-21 18:27:00,65.1,50.9,29.69,WNW,292,10.0,11.0,60,0.00,,,0.06,meteohub,2013-06-21 17:27:00,
2013-06-21 18:32:00,65.1,50.4,29.69,SW,225,6.0,11.0,59,0.00,,,0.06,meteohub,2013-06-21 17:32:00,
2013-06-21 18:38:00,65.1,50.4,29.69,WSW,247,7.0,13.0,59,0.00,,,0.06,meteohub,2013-06-21 17:38:00,
2013-06-21 18:46:00,64.9,49.8,29.69,SSW,202,6.0,13.0,58,0.00,,,0.06,meteohub,2013-06-21 17:46:00,
2013-06-21 18:47:00,64.8,49.1,29.69,WNW,292,6.0,13.0,57,0.00,,,0.06,meteohub,2013-06-21 17:47:00,
2013-06-21 18:52:00,64.8,49.1,29.66,WNW,292,11.0,11.0,57,0.00,,,0.06,meteohub,2013-06-21 17:52:00,
2013-06-21 18:58:00,64.6,48.9,29.66,West,270,10.0,11.0,57,0.00,,,0.06,meteohub,2013-06-21 17:58:00,
2013-06-21 18:59:00,64.6,48.9,29.66,SW,225,6.0,11.0,57,0.00,,,0.06,meteohub,2013-06-21 17:59:00,
2013-06-21 19:04:00,64.4,48.4,29.66,West,270,3.0,12.0,56,0.00,,,0.06,meteohub,2013-06-21 18:04:00,
2013-06-21 19:10:00,64.4,48.4,29.66,WSW,247,9.0,12.0,56,0.00,,,0.06,meteohub,2013-06-21 18:10:00,
2013-06-21 19:15:00,64.2,48.2,29.66,South,180,8.0,13.0,56,0.00,,,0.06,meteohub,2013-06-21 18:15:00,
2013-06-21 19:20:00,63.9,47.3,29.66,WSW,247,6.0,13.0,55,0.00,,,0.06,meteohub,2013-06-21 18:20:00,
2013-06-21 19:22:00,63.9,47.3,29.66,SW,225,9.0,13.0,55,0.00,,,0.06,meteohub,2013-06-21 18:22:00,
2013-06-21 19:23:00,63.7,47.3,29.66,SW,225,9.0,13.0,55,0.00,,,0.06,meteohub,2013-06-21 18:23:00,
2013-06-21 19:24:00,63.7,47.3,29.66,SW,225,6.0,13.0,55,0.00,,,0.06,meteohub,2013-06-21 18:24:00,
2013-06-21 19:25:00,63.7,47.7,29.66,WSW,247,3.0,13.0,56,0.00,,,0.06,meteohub,2013-06-21 18:25:00,
2013-06-21 19:27:00,63.7,47.7,29.66,SW,225,6.0,13.0,56,0.00,,,0.06,meteohub,2013-06-21 18:27:00,
2013-06-21 19:32:00,63.5,47.1,29.66,SSW,202,1.0,12.0,55,0.00,,,0.06,meteohub,2013-06-21 18:32:00,
2013-06-21 19:34:00,63.5,47.1,29.66,SW,225,2.0,12.0,55,0.00,,,0.06,meteohub,2013-06-21 18:34:00,
2013-06-21 19:39:00,63.1,46.8,29.66,WNW,292,6.0,12.0,55,0.00,,,0.06,meteohub,2013-06-21 18:39:00,
2013-06-21 19:44:00,63.0,46.6,29.66,WSW,247,3.0,12.0,55,0.00,,,0.06,meteohub,2013-06-21 18:44:00,
2013-06-21 19:45:00,62.6,45.7,29.66,SSW,202,2.0,12.0,54,0.00,,,0.06,meteohub,2013-06-21 18:45:00,
2013-06-21 19:46:00,62.6,45.7,29.66,SSW,202,6.0,12.0,54,0.00,,,0.06,meteohub,2013-06-21 18:46:00,
2013-06-21 19:48:00,62.6,46.2,29.66,SW,225,6.0,12.0,55,0.00,,,0.06,meteohub,2013-06-21 18:48:00,
2013-06-21 19:50:00,62.4,46.0,29.66,WNW,292,2.0,11.0,55,0.00,,,0.06,meteohub,2013-06-21 18:50:00,
2013-06-21 19:55:00,62.1,45.7,29.66,West,270,5.0,10.0,55,0.00,,,0.06,meteohub,2013-06-21 18:55:00,
2013-06-21 20:01:00,61.9,45.5,29.66,NNW,337,5.0,10.0,55,0.00,,,0.06,meteohub,2013-06-21 19:01:00,
2013-06-21 20:06:00,61.7,45.3,29.66,WNW,292,4.0,9.0,55,0.00,,,0.06,meteohub,2013-06-21 19:06:00,
2013-06-21 20:11:00,61.5,45.1,29.66,WSW,247,3.0,9.0,55,0.00,,,0.06,meteohub,2013-06-21 19:11:00,
2013-06-21 20:16:00,61.3,45.0,29.66,WNW,292,4.0,9.0,55,0.00,,,0.06,meteohub,2013-06-21 19:16:00,
2013-06-21 20:20:00,61.3,45.0,29.66,WSW,247,4.0,9.0,55,0.00,,,0.06,meteohub,2013-06-21 19:20:00,
2013-06-21 20:26:00,61.0,44.8,29.66,WNW,292,6.0,9.0,55,0.00,,,0.06,meteohub,2013-06-21 19:26:00,
2013-06-21 20:31:00,61.0,44.8,29.66,SW,225,3.0,9.0,55,0.00,,,0.06,meteohub,2013-06-21 19:31:00,
2013-06-21 20:36:00,60.8,44.6,29.66,NW,315,9.0,9.0,55,0.00,,,0.06,meteohub,2013-06-21 19:36:00,
2013-06-21 20:41:00,60.6,44.8,29.66,WSW,247,6.0,9.0,56,0.00,,,0.06,meteohub,2013-06-21 19:41:00,
2013-06-21 20:42:00,60.6,44.8,29.66,WSW,247,3.0,9.0,56,0.00,,,0.06,meteohub,2013-06-21 19:42:00,
2013-06-21 20:47:00,60.4,44.6,29.66,WSW,247,3.0,9.0,56,0.00,,,0.06,meteohub,2013-06-21 19:47:00,
2013-06-21 20:52:00,60.3,44.4,29.66,West,270,5.0,10.0,56,0.00,,,0.06,meteohub,2013-06-21 19:52:00,
2013-06-21 20:57:00,60.1,44.4,29.66,West,270,5.0,10.0,56,0.00,,,0.06,meteohub,2013-06-21 19:57:00,
2013-06-21 21:02:00,59.9,44.2,29.66,WSW,247,3.0,10.0,56,0.00,,,0.06,meteohub,2013-06-21 20:02:00,
2013-06-21 21:07:00,59.9,44.6,29.66,WSW,247,6.0,8.0,57,0.00,,,0.06,meteohub,2013-06-21 20:07:00,
2013-06-21 21:11:00,59.7,44.4,29.66,SW,225,5.0,8.0,57,0.00,,,0.06,meteohub,2013-06-21 20:11:00,
2013-06-21 21:13:00,59.7,44.4,29.66,West,270,1.0,8.0,57,0.00,,,0.06,meteohub,2013-06-21 20:13:00,
2013-06-21 21:14:00,59.7,44.4,29.66,SW,225,3.0,8.0,57,0.00,,,0.06,meteohub,2013-06-21 20:14:00,
2013-06-21 21:19:00,59.5,44.2,29.66,SW,225,3.0,8.0,57,0.00,,,0.06,meteohub,2013-06-21 20:19:00,
2013-06-21 21:24:00,59.4,44.1,29.66,West,270,4.0,6.0,57,0.00,,,0.06,meteohub,2013-06-21 20:24:00,
2013-06-21 21:29:00,59.2,43.9,29.66,SW,225,4.0,8.0,57,0.00,,,0.06,meteohub,2013-06-21 20:29:00,
2013-06-21 21:34:00,59.2,44.4,29.66,WNW,292,2.0,8.0,58,0.00,,,0.06,meteohub,2013-06-21 20:34:00,
2013-06-21 21:39:00,59.2,44.4,29.66,WNW,292,4.0,8.0,58,0.00,,,0.06,meteohub,2013-06-21 20:39:00,
2013-06-21 21:45:00,59.0,44.8,29.66,WSW,247,0.0,6.0,59,0.00,,,0.06,meteohub,2013-06-21 20:45:00,
2013-06-21 21:50:00,59.0,44.8,29.66,WSW,247,0.0,6.0,59,0.00,,,0.06,meteohub,2013-06-21 20:50:00,
2013-06-21 21:55:00,58.8,45.0,29.66,WSW,247,1.0,5.0,60,0.00,,,0.06,meteohub,2013-06-21 20:55:00,
2013-06-21 22:00:00,58.6,44.8,29.66,WSW,247,0.0,4.0,60,0.00,,,0.06,meteohub,2013-06-21 21:00:00,
2013-06-21 22:04:00,58.5,44.6,29.63,WSW,247,2.0,4.0,60,0.00,,,0.06,meteohub,2013-06-21 21:04:00,
2013-06-21 22:10:00,58.3,45.0,29.63,SW,225,0.0,3.0,61,0.00,,,0.06,meteohub,2013-06-21 21:10:00,
2013-06-21 22:15:00,58.3,45.0,29.63,SW,225,2.0,4.0,61,0.00,,,0.06,meteohub,2013-06-21 21:15:00,
2013-06-21 22:21:00,58.1,45.1,29.63,SW,225,3.0,4.0,62,0.00,,,0.06,meteohub,2013-06-21 21:21:00,
2013-06-21 22:26:00,58.1,45.1,29.63,SW,225,2.0,4.0,62,0.00,,,0.06,meteohub,2013-06-21 21:26:00,
2013-06-21 22:31:00,57.9,45.0,29.63,SSW,202,0.0,4.0,62,0.00,,,0.06,meteohub,2013-06-21 21:31:00,
2013-06-21 22:36:00,57.9,45.3,29.63,South,180,3.0,3.0,63,0.00,,,0.06,meteohub,2013-06-21 21:36:00,
2013-06-21 22:41:00,57.9,45.9,29.63,SSW,202,2.0,4.0,64,0.00,,,0.06,meteohub,2013-06-21 21:41:00,
2013-06-21 22:46:00,57.9,45.9,29.63,SSW,202,3.0,4.0,64,0.00,,,0.06,meteohub,2013-06-21 21:46:00,
2013-06-21 22:52:00,57.7,45.7,29.63,South,180,3.0,4.0,64,0.00,,,0.06,meteohub,2013-06-21 21:52:00,
2013-06-21 22:57:00,57.7,46.0,29.63,SSW,202,3.0,5.0,65,0.00,,,0.06,meteohub,2013-06-21 21:57:00,
2013-06-21 23:02:00,57.7,46.0,29.63,SSW,202,4.0,6.0,65,0.00,,,0.06,meteohub,2013-06-21 22:02:00,
2013-06-21 23:07:00,57.7,46.0,29.63,South,180,1.0,6.0,65,0.00,,,0.06,meteohub,2013-06-21 22:07:00,
2013-06-21 23:12:00,57.7,46.0,29.63,SSW,202,3.0,6.0,65,0.00,,,0.06,meteohub,2013-06-21 22:12:00,
2013-06-21 23:17:00,57.7,46.0,29.63,SSW,202,4.0,6.0,65,0.00,,,0.06,meteohub,2013-06-21 22:17:00,
2013-06-21 23:22:00,57.7,46.4,29.63,SSW,202,4.0,6.0,66,0.00,,,0.06,meteohub,2013-06-21 22:22:00,
2013-06-21 23:27:00,57.6,46.2,29.63,SSW,202,2.0,6.0,66,0.00,,,0.06,meteohub,2013-06-21 22:27:00,
2013-06-21 23:32:00,57.6,46.2,29.63,SSW,202,3.0,6.0,66,0.00,,,0.06,meteohub,2013-06-21 22:32:00,
2013-06-21 23:37:00,57.6,46.2,29.63,SW,225,4.0,6.0,66,0.00,,,0.06,meteohub,2013-06-21 22:37:00,
2013-06-21 23:42:00,57.6,46.8,29.63,South,180,4.0,7.0,67,0.00,,,0.06,meteohub,2013-06-21 22:42:00,
2013-06-21 23:47:00,57.4,46.9,29.63,South,180,5.0,7.0,68,0.00,,,0.06,meteohub,2013-06-21 22:47:00,
2013-06-21 23:53:00,57.4,47.3,29.60,SSW,202,6.0,7.0,69,0.00,,,0.06,meteohub,2013-06-21 22:53:00,
2013-06-21 23:58:00,57.4,47.3,29.60,SSW,202,8.0,10.0,69,0.00,,,0.06,meteohub,2013-06-21 22:58:00,